KE5HYT Weather Reports


time (UTC)temp
C
wind
direction
speed
KPH
gust
KPH
rain 1hr
cm
rain 24hr
cm
rain mn
cm
humidity
%
barometer
mb
20260906060904 25 0 0.0 0.0 0.00 0.00 0.00 89 1011.3
20260906060003 25 0 0.0 0.0 0.00 0.00 0.00 89 1011.6
20260906055403 25 0 0.0 0.0 0.00 0.00 0.00 89 1011.5
20260906054503 25 190 1.6 4.8 0.00 0.00 0.00 88 1011.5
20260906053603 25 177 3.2 19.3 0.00 0.00 0.00 88 1011.8
20260906052704 25 0 0.0 0.0 0.00 0.00 0.00 87 1011.6
20260906051803 25 0 0.0 0.0 0.00 0.00 0.00 88 1011.6
20260906050924 25 0 0.0 0.0 0.00 0.00 0.00 88 1011.5
20260906050006 25 0 0.0 0.0 0.00 0.00 0.00 88 1011.4
20260906045403 25 0 0.0 0.0 0.00 0.00 0.00 88 1011.5
20260906044503 26 0 0.0 0.0 0.00 0.00 0.00 88 1011.4
20260906043603 26 0 0.0 0.0 0.00 0.00 0.00 86 1011.3
20260906042703 26 0 0.0 0.0 0.00 0.00 0.00 87 1011.6
20260906041803 26 0 0.0 0.0 0.00 0.00 0.00 87 1011.5
20260906040904 26 0 0.0 0.0 0.00 0.00 0.00 86 1011.4
20260906040004 26 0 0.0 0.0 0.00 0.00 0.00 86 1011.4
20260906035403 26 0 0.0 0.0 0.00 0.00 0.00 86 1011.4
20260906034503 26 0 0.0 0.0 0.00 0.00 0.00 86 1011.3
20260906033604 26 0 0.0 0.0 0.00 0.00 0.00 85 1011.3
20260906032704 26 0 0.0 0.0 0.00 0.00 0.00 84 1011.4
20260906031803 26 0 0.0 0.0 0.00 0.00 0.00 84 1011.4
20260906030903 27 0 0.0 0.0 0.00 0.00 0.00 83 1011.3
20260906030003 27 0 0.0 0.0 0.00 0.00 0.00 83 1011.2
20260906025403 27 0 0.0 0.0 0.00 0.00 0.00 81 1011.2
20260906024504 27 0 0.0 0.0 0.00 0.00 0.00 79 1011.3
20260906023603 27 0 0.0 0.0 0.00 0.00 0.00 80 1011.2
20260906022703 27 0 0.0 0.0 0.00 0.00 0.00 81 1010.9
20260906021803 27 0 0.0 0.0 0.00 0.00 0.00 81 1010.8
20260906020903 27 0 0.0 0.0 0.00 0.00 0.00 80 1010.9
20260906020004 27 0 0.0 0.0 0.00 0.00 0.00 79 1010.7
20260906015404 27 0 0.0 0.0 0.00 0.00 0.00 77 1010.6
20260906014503 27 0 0.0 0.0 0.00 0.00 0.00 78 1010.6
20260906013624 28 0 0.0 0.0 0.00 0.00 0.00 77 1010.6
20260906012703 28 0 0.0 0.0 0.00 0.00 0.00 77 1010.6
20260906011825 28 0 0.0 0.0 0.00 0.00 0.00 73 1010.6
20260906010903 28 0 0.0 0.0 0.00 0.00 0.00 75 1010.3
20260906010003 28 0 0.0 0.0 0.00 0.00 0.00 73 1010.3
20260906005403 29 0 0.0 0.0 0.00 0.00 0.00 71 1010.2
20260906004524 30 0 0.0 0.0 0.00 0.00 0.00 73 1010.1
20260906003603 30 0 0.0 0.0 0.00 0.00 0.00 72 1010.0
20260906002725 30 0 0.0 0.0 0.00 0.00 0.00 67 1009.8
20260906001824 31 0 0.0 0.0 0.00 0.00 0.00 70 1010.1
20260906000903 31 0 0.0 0.0 0.00 0.00 0.00 66 1010.1
20260906000024 31 0 0.0 0.0 0.00 0.00 0.00 64 1010.2
20260905235403 32 0 0.0 0.0 0.00 0.00 0.00 65 1010.2
20260905234503 32 0 0.0 0.0 0.00 0.00 0.00 64 1010.2
20260905233604 32 0 0.0 0.0 0.00 0.00 0.00 63 1010.2
20260905232703 33 0 0.0 0.0 0.00 0.00 0.00 63 1010.3
20260905231824 33 0 0.0 0.0 0.00 0.00 0.00 60 1010.2
20260905230903 33 33 0.0 1.6 0.00 0.00 0.00 59 1010.1
20260905230003 34 33 0.0 1.6 0.00 0.00 0.00 59 1010.2
20260905225403 34 32 0.0 1.6 0.00 0.00 0.00 57 1010.1
20260905224503 35 33 0.0 1.6 0.00 0.00 0.00 54 1010.1
20260905223625 35 90 1.6 4.8 0.00 0.00 0.00 52 1010.2
20260905222724 36 143 1.6 3.2 0.00 0.00 0.00 48 1010.1
20260905221803 36 143 1.6 4.8 0.00 0.00 0.00 48 1010.2
20260905220924 37 176 1.6 8.0 0.00 0.00 0.00 45 1010.2
20260905220004 37 112 1.6 8.0 0.00 0.00 0.00 44 1010.3
20260905215403 37 162 1.6 6.4 0.00 0.00 0.00 46 1010.5
20260905214504 37 181 4.8 8.0 0.00 0.00 0.00 45 1010.4
20260905213603 37 173 3.2 9.7 0.00 0.00 0.00 44 1010.5
20260905212703 37 179 3.2 6.4 0.00 0.00 0.00 46 1010.5
20260905211824 37 190 3.2 6.4 0.00 0.00 0.00 43 1010.6
20260905210903 37 176 3.2 8.0 0.00 0.00 0.00 40 1010.7
20260905210004 37 148 1.6 8.0 0.00 0.00 0.00 45 1010.7
20260905205403 37 50 1.6 8.0 0.00 0.00 0.00 43 1010.7
20260905204503 37 359 3.2 11.3 0.00 0.00 0.00 46 1010.6
20260905203624 37 15 1.6 6.4 0.00 0.00 0.00 43 1010.9
20260905202703 37 82 1.6 4.8 0.00 0.00 0.00 43 1011.0
20260905201804 37 16 1.6 9.7 0.00 0.00 0.00 47 1011.0
20260905200903 37 9 1.6 6.4 0.00 0.00 0.00 47 1011.2
20260905200003 37 8 1.6 6.4 0.00 0.00 0.00 50 1011.6
20260905195403 37 69 1.6 6.4 0.00 0.00 0.00 49 1011.6
20260905194503 37 26 3.2 8.0 0.00 0.00 0.00 52 1011.7
20260905193603 37 157 3.2 6.4 0.00 0.00 0.00 46 1011.7
20260905192703 37 68 1.6 6.4 0.00 0.00 0.00 52 1011.9
20260905191824 37 21 3.2 14.5 0.00 0.00 0.00 51 1012.1
20260905190903 36 34 1.6 9.7 0.00 0.00 0.00 52 1012.3
20260905190003 36 29 1.6 9.7 0.00 0.00 0.00 53 1012.4
20260905185403 37 94 1.6 4.8 0.00 0.00 0.00 49 1012.4
20260905184504 37 148 3.2 11.3 0.00 0.00 0.00 50 1012.4
20260905183603 36 160 4.8 11.3 0.00 0.00 0.00 52 1012.4
20260905182703 36 142 1.6 6.4 0.00 0.00 0.00 58 1012.5
20260905181824 35 330 3.2 11.3 0.00 0.00 0.00 53 1012.7
20260905180924 36 10 3.2 11.3 0.00 0.00 0.00 54 1012.9
20260905180004 35 328 3.2 12.9 0.00 0.00 0.00 55 1012.9
20260905175404 36 343 3.2 12.9 0.00 0.00 0.00 56 1012.9
20260905174503 36 54 1.6 9.7 0.00 0.00 0.00 58 1012.9
20260905173604 36 320 3.2 14.5 0.00 0.00 0.00 53 1013.0
20260905172704 36 332 1.6 14.5 0.00 0.00 0.00 53 1013.2
20260905171803 36 15 3.2 8.0 0.00 0.00 0.00 55 1013.2
20260905170903 35 1 3.2 9.7 0.00 0.00 0.00 57 1013.3
20260905170003 35 1 3.2 9.7 0.00 0.00 0.00 58 1013.3
20260905165424 35 355 3.2 9.7 0.00 0.00 0.00 58 1013.5
20260905164503 35 316 1.6 11.3 0.00 0.00 0.00 57 1013.7
20260905163604 35 0 0.0 0.0 0.00 0.00 0.00 56 1013.7
20260905162724 34 0 0.0 0.0 0.00 0.00 0.00 60 1013.8
20260905161803 35 0 0.0 0.0 0.00 0.00 0.00 56 1013.8
20260905160903 33 0 0.0 0.0 0.00 0.00 0.00 61 1013.9
20260905160024 33 0 0.0 0.0 0.00 0.00 0.00 61 1014.0
20260905155403 33 0 0.0 0.0 0.00 0.00 0.00 66 1014.1
20260905154503 33 0 0.0 0.0 0.00 0.00 0.00 64 1014.0
20260905153603 32 0 0.0 0.0 0.00 0.00 0.00 66 1014.0
20260905152703 32 0 0.0 0.0 0.00 0.00 0.00 71 1014.0
20260905151803 32 0 0.0 0.0 0.00 0.00 0.00 71 1014.1
20260905150903 31 0 0.0 0.0 0.00 0.00 0.00 73 1014.1
20260905150003 31 0 0.0 0.0 0.00 0.00 0.00 75 1014.1
20260905145403 31 0 0.0 0.0 0.00 0.00 0.00 75 1014.0
20260905144503 30 0 0.0 0.0 0.00 0.00 0.00 79 1014.1
20260905143603 29 0 0.0 0.0 0.00 0.00 0.00 81 1014.2
20260905142724 28 0 0.0 0.0 0.00 0.00 0.00 85 1014.2
20260905141803 27 0 0.0 0.0 0.00 0.00 0.00 85 1014.1
20260905140903 26 0 0.0 0.0 0.00 0.00 0.00 88 1014.0
20260905140004 25 0 0.0 0.0 0.00 0.00 0.00 92 1014.0
20260905135403 25 0 0.0 0.0 0.00 0.00 0.00 92 1014.0
20260905134503 25 0 0.0 0.0 0.00 0.00 0.00 94 1014.0
20260905133603 24 0 0.0 0.0 0.00 0.00 0.00 95 1014.0
20260905132703 24 0 0.0 0.0 0.00 0.00 0.00 96 1014.1
20260905131824 24 0 0.0 0.0 0.00 0.00 0.00 96 1014.1
20260905130924 23 0 0.0 0.0 0.00 0.00 0.00 96 1014.0
20260905130003 23 0 0.0 0.0 0.00 0.00 0.00 96 1014.1
20260905125403 23 0 0.0 0.0 0.00 0.00 0.00 96 1014.1
20260905124503 23 0 0.0 0.0 0.00 0.00 0.00 96 1014.0
20260905123603 23 0 0.0 0.0 0.00 0.00 0.00 96 1014.0
20260905122703 22 0 0.0 0.0 0.00 0.00 0.00 96 1014.1
20260905121803 22 0 0.0 0.0 0.00 0.00 0.00 96 1014.0
20260905120903 22 0 0.0 0.0 0.00 0.00 0.00 96 1014.1
20260905120004 22 0 0.0 0.0 0.00 0.00 0.00 96 1014.0
20260905115403 22 0 0.0 0.0 0.00 0.00 0.00 96 1014.0
20260905114503 22 0 0.0 0.0 0.00 0.00 0.00 96 1013.9
20260905113603 22 0 0.0 0.0 0.00 0.00 0.00 96 1013.7
20260905112703 22 0 0.0 0.0 0.00 0.00 0.00 95 1013.7
20260905111803 22 0 0.0 0.0 0.00 0.00 0.00 95 1013.6
20260905110904 22 0 0.0 0.0 0.00 0.00 0.00 95 1013.5
20260905110003 22 0 0.0 0.0 0.00 0.00 0.00 95 1013.4
20260905105403 22 0 0.0 0.0 0.00 0.00 0.00 95 1013.4
20260905104503 22 0 0.0 0.0 0.00 0.00 0.00 95 1013.3
20260905103603 22 0 0.0 0.0 0.00 0.00 0.00 95 1013.2
20260905102703 23 0 0.0 0.0 0.00 0.00 0.00 95 1013.1
20260905101803 23 0 0.0 0.0 0.00 0.00 0.00 95 1013.1
20260905100903 23 0 0.0 0.0 0.00 0.00 0.00 95 1013.1
20260905100004 23 0 0.0 0.0 0.00 0.00 0.00 95 1013.1
20260905095403 23 0 0.0 0.0 0.00 0.00 0.00 95 1012.9
20260905094525 23 0 0.0 0.0 0.00 0.00 0.00 95 1012.8
20260905093604 23 0 0.0 0.0 0.00 0.00 0.00 95 1012.7
20260905092703 23 0 0.0 0.0 0.00 0.00 0.00 95 1012.5
20260905091803 23 0 0.0 0.0 0.00 0.00 0.00 94 1012.6
20260905090903 23 0 0.0 0.0 0.00 0.00 0.00 94 1012.5
20260905090004 23 0 0.0 0.0 0.00 0.00 0.00 94 1012.6
20260905085404 23 0 0.0 0.0 0.00 0.00 0.00 94 1012.5
20260905084503 23 0 0.0 0.0 0.00 0.00 0.00 94 1012.6
20260905083603 23 0 0.0 0.0 0.00 0.00 0.00 94 1012.7
20260905082703 23 0 0.0 0.0 0.00 0.00 0.00 94 1012.8
20260905081803 23 0 0.0 0.0 0.00 0.00 0.00 94 1012.8
20260905080903 23 0 0.0 0.0 0.00 0.00 0.00 93 1012.7
20260905080004 23 0 0.0 0.0 0.00 0.00 0.00 93 1012.7
20260905075424 23 0 0.0 0.0 0.00 0.00 0.00 93 1012.5
20260905074503 23 0 0.0 0.0 0.00 0.00 0.00 93 1012.6
20260905073603 23 0 0.0 0.0 0.00 0.00 0.00 93 1012.7
20260905072725 23 0 0.0 0.0 0.00 0.00 0.00 92 1012.7
20260905071803 24 0 0.0 0.0 0.00 0.00 0.00 92 1012.7
20260905070904 24 0 0.0 0.0 0.00 0.00 0.00 92 1012.7
20260905070004 24 0 0.0 0.0 0.00 0.00 0.00 92 1012.7
20260905065403 24 0 0.0 0.0 0.00 0.00 0.00 92 1012.7
20260905064524 24 0 0.0 0.0 0.00 0.00 0.00 92 1012.7
20260905063603 24 0 0.0 0.0 0.00 0.00 0.00 92 1012.8
20260905062703 24 0 0.0 0.0 0.00 0.00 0.00 92 1012.9
20260905061803 24 0 0.0 0.0 0.00 0.00 0.00 92 1013.0